Printer-friendly version

IAU Minor Planet Center

Minor Planet Center

MPEC 2007-B31 : 2003 AK18

The following Minor Planet Electronic Circular may be linked-to from your own Web pages, but must not otherwise be redistributed electronically.


Read MPEC 2007-B30 Read MPEC 2007-B32


M.P.E.C. 2007-B31                                Issued 2007 Jan. 22, 19:49 UT

     The Minor Planet Electronic Circulars contain information on unusual
         minor planets and routine data on comets.  They are published
   on behalf of Commission 20 of the International Astronomical Union by the
          Minor Planet Center, Smithsonian Astrophysical Observatory,
                          Cambridge, MA 02138, U.S.A.

             Prepared using the Tamkin Foundation Computer Network

                              MPC@CFA.HARVARD.EDU
          URL http://cfa-www.harvard.edu/iau/mpc.html  ISSN 1523-6714

                                   2003 AK18

                           Revision to MPEC 2003-A52

Additional Observations:
     K03A18K  C2007 01 21.79197 00 43 40.00 +12 32 44.9                 EB031J95
     K03A18K  C2007 01 21.80079 00 43 43.37 +12 32 59.5                 EB031J95
     K03A18K  C2007 01 21.81794 00 43 50.04 +12 33 27.9                 EB031J95
     K03A18K  C2007 01 21.82992 00 43 54.77 +12 33 46.7          20.6 R EB031J95
     K03A18K  C2007 01 22.76329 00 50 01.30 +12 59 32.8                 EB031J95
     K03A18K  C2007 01 22.78285 00 50 08.92 +13 00 05.2                 EB031J95
     K03A18K  C2007 01 22.80366 00 50 16.92 +13 00 38.6          20.1 R EB031J95

Observer details:
J95 Great Shefford.  Observer P. Birtwhistle.  0.40-m f/6.0 Schmidt-Cassegrain
    + CCD.

First and last observations above in comparison with prediction:
Residuals in seconds of arc, reference and Delta-T
070121 J95  7.9+  4.8+    070122 J95  6.8+  4.3+    MPO 48309   -0.0012 day

Orbital elements:
2003 AK18                                                Earth MOID = 0.0569 AU
Epoch 2007 Apr. 10.0 TT = JDT 2454200.5                 MPC
M 179.01423              (2000.0)            P               Q
n   1.20186254     Peri.   23.56161     +0.82045114     +0.56118222
a   0.8761252      Node   301.85198     -0.54286472     +0.70475665
e   0.3841234      Incl.    7.38940     -0.17932606     +0.43404215
P   0.82           H   19.7           G   0.15           U   4
Residuals in seconds of arc
030107 704  0.2-  0.9+    030112 557  0.0   0.2-    030124 127  0.4+  0.4+
030107 704  0.4-  0.9+    030112 170  0.1-  0.0     030124 127  0.4+  0.0
030107 704  0.2-  1.3+    030112 170  0.4-  0.2+    030125 587  0.1-  0.6+
030107 704  0.2-  0.9+    030112 170  0.8+  0.1+    030125 587  0.7+  0.4+
030107 704  0.4-  1.1+    030112 170  0.5+  0.3+    030125 560 (3.0-  2.6-)
030108 J95  0.2-  0.1-    030112 170  0.3+  0.1-    030125 560 (3.0-  0.7-)
030108 J95  0.1-  0.1-    030112 170  0.4-  0.0     030125 560 (2.9-  1.2-)
030108 J95  0.2+  0.1-    030112 557  0.0   0.0     030125 560 (3.9-  1.1-)
030108 J95  0.4-  0.0     030112 557  0.1+  0.1+    030128 560 (2.0-  0.4-)
030108 J95  0.0   0.1+    030112 557  0.1+  0.3+    030128 560  0.9-  0.3+
030108 J95  0.0   0.2-    030112 557  0.4-  0.1-    030128 560 (2.6-  0.6-)
030108 J95  0.2+  0.2-    030112 151  0.2-  0.3+    030128 560 (1.6-  0.7-)
030108 A22  0.4+  0.9-    030112 151  0.2-  0.1+    030128 560 (2.2-  1.2-)
030108 A22  0.6-  0.3+    030112 151  0.0   0.3+    030128 176  0.2-  0.2-
030108 A22 (1.9-  0.3-)   030112 151  0.2+  0.1-    030128 176  0.2-  0.2-
030108 A22 (0.1-  1.6+)   030112 151  0.2+  0.2-    030128 176  0.1-  0.1-
030108 858  0.3-  0.2-    030112 151  0.2-  0.3-    030128 176  0.0   0.0
030108 858  0.2+  0.1-    030112 151  0.6-  0.2+    030128 176  0.3+  0.4+
030108 858  0.3+  0.0     030112 151  0.2-  0.1+    030129 726  0.4-  1.3-
030108 858  0.1+  0.4+    030112 151  0.3+  0.2+    030129 726  0.7-  0.7+
030108 726  0.1+  1.0-    030112 151  0.1+  0.1-    030129 726  0.4-  1.2+
030108 726  0.3+  0.5-    030112 240  0.2+  0.2-    030129 726  0.2+  0.4+
030108 726  1.0+  1.1-    030112 240  0.3-  0.2-    030129 670  0.2+  0.2+
030108 726 (0.9+  1.7-)   030112 240  0.1-  0.2-    030129 670  0.0   0.1+
030108 704  0.2+  0.1-    030112 469  0.4+  0.0     030201 215 (0.2-  1.9-)
030108 704  0.1+  0.4+    030112 469  0.5+  0.0     030201 084  0.2-  0.2+
030108 704  0.1+  0.1-    030112 469  0.3-  0.2-    030201 552  0.2-  0.1-
030108 704  0.2+  0.2+    030112 469  0.1-  0.1-    030201 552 (0.5-  2.8-)
030108 704  0.1+  0.1+    030112 469  0.1+  0.2-    030201 552  0.0   0.3-
030108 704  0.2+  0.2+    030114 711  0.0   0.0     030201 552  0.1-  0.2-
030108 704  0.1+  0.1+    030114 711  0.2+  0.1+    030201 552  0.1-  0.1-
030108 704  0.2+  0.3+    030114 711  0.1-  0.2+    030201 552  0.5+  0.3-
030108 704  0.3+  0.1+    030114 711  0.1-  0.1+    030202 552  0.2-  0.1+
030108 704  0.1+  0.2+    030115 704  0.4+  0.1+    030202 552  0.1+  0.4-
030108 348  0.0   0.4-    030115 711  0.1+  0.1+    030202 552  0.0   0.0
030108 348  0.6+  0.4-    030115 711  0.1+  0.0     030202 552  0.3+  1.0+
030108 348  0.1+  0.3-    030115 704  0.2+  0.3+    030202 552  0.1-  0.1-
030108 348  0.0   0.1-    030115 711  0.0   0.1+    030202 170  1.4+  0.3+
030110 704  0.2+  0.2+    030115 711  0.1+  0.1+    030202 170  0.0   0.5+
030110 704  0.1+  0.0     030115 704  0.1+  0.3+    030202 170  0.2-  0.4-
030110 704  0.2+  0.2-    030115 704  0.1-  0.1+    030204 084  0.1-  1.0-
030110 704  0.2-  0.3-    030115 704  0.3-  0.6+    030208 941  0.6-  0.3-
030110 704  0.0   0.3-    030116 670  0.3+  0.0     030208 941  0.5+  0.6-
030111 941  0.4-  0.1+    030116 670  0.4+  0.0     030208 941  0.8-  1.0-
030111 941  0.4-  0.1+    030116 670  0.4-  0.7-    030208 941  0.1+  1.3-
030111 941  0.2-  0.2+    030116 670  0.0   0.3-    030215 084  0.9+  0.5-
030111 941  1.1-  0.2+    030117 084  0.1-  0.0     030220 113  0.4+  0.3+
030111 941  0.1+  0.1+    030120 084  0.4+  0.4-    030220 113  0.1-  0.2+
030111 941  0.1-  0.2+    030122 608  0.7-  0.2-    030220 113  0.1-  0.0
030111 858  0.1+  0.2+    030122 608  0.3-  0.3-    030221 670  0.2-  0.0
030111 858  0.3-  0.2+    030122 608  0.6-  0.0     030222 246  0.2-  0.6+
030111 858  0.0   0.2+    030122 560 (5.2-  2.1-)   030222 246  0.2-  0.6+
030111 557  0.1+  0.0     030122 560 (4.8-  0.2+)   030222 246  0.2-  0.4+
030111 557  0.2+  0.2-    030122 560 (4.6-  1.6-)   030222 246  0.0   0.4+
030112 941  0.0   0.5-    030122 560 (4.4-  1.0-)   030222 246  0.2+  0.0
030112 941  0.2+  0.3-    030123 170  0.2+  0.2+    030222 246  0.1+  0.3+
030112 941  0.2+  0.2-    030123 170  0.9+  0.2+    030222 246  0.2+  0.1-
030112 557  0.0   0.2-    030123 170  0.9-  0.0     030426 696  1.5+  0.0
030112 941  0.4+  0.1-    030123 170  0.0   1.1+    030426 696  0.7-  0.5-
030112 941  0.4-  0.1-    030123 170  0.1-  0.1-    070121 J95  1.0+  0.6+
030112 557  0.0   0.0     030123 170  0.2+  0.3-    070121 J95  0.1-  0.4+
030112 557  0.1+  0.2-    030123 170  0.1-  0.6-    070121 J95  0.5-  0.1+
030112 557  0.1-  0.0     030124 670  0.0   0.0     070121 J95  0.1+  1.1-
030112 939  0.4+  0.1-    030124 670  0.6+  0.1+    070122 J95  0.6-  0.4-
030112 939  0.2-  0.1+    030124 670  0.1+  0.1+    070122 J95  0.4+  0.4+
030112 939  0.6-  0.5+    030124 127  0.2-  0.2-    070122 J95  0.3-  0.1+
030112 557  0.3-  0.1-    030124 127  0.0   0.2-

Ephemeris:
2003 AK18                a,e,i = 0.88, 0.38, 7                   q = 0.5396
Date    TT    R. A. (2000) Decl.     Delta      r     Elong.  Phase     V
2007 01 20    00 31.79   +11 41.0    0.486    0.959    72.6    78.4    20.8
2007 01 30    01 35.20   +15 50.1    0.524    1.018    78.3    71.4    20.8
2007 02 09    02 30.68   +18 28.7    0.582    1.069    81.5    65.9    21.0
2007 02 19    03 18.47   +20 00.1    0.653    1.112    82.6    61.8    21.2
2007 03 01    04 00.04   +20 46.9    0.730    1.148    82.2    58.8    21.4
2007 03 11    04 36.89   +21 03.6    0.809    1.176    80.7    56.5    21.6
2007 03 21    05 10.35   +20 59.1    0.889    1.196    78.5    54.7    21.8
2007 03 31    05 41.44   +20 37.9    0.966    1.208    75.9    53.3    22.0

Timothy B. Spahr             (C) Copyright 2007 MPC           M.P.E.C. 2007-B31

Read MPEC 2007-B30 Read MPEC 2007-B32


Our Web policy. Index to the CBAT/MPC/ICQ pages.


Valid HTML 4.01!